KJ5IIV Weather Reports


Display with metric or nautical units.
time (UTC)temp
F
wind
direction
speed
MPH
gust
MPH
rain 1hr
in
rain 24hr
in
rain mn
in
humidity
%
barometer
mb
20260505083417 68 291 2.0 4.0 0.00 0.00 0.00 84 1005.9
20260505082913 68 12 3.0 6.0 0.00 0.00 0.00 84 1005.9
20260505082409 68 190 2.0 5.0 0.00 0.00 0.00 84 1006.0
20260505081906 68 69 4.0 7.0 0.00 0.00 0.00 84 1006.1
20260505081403 68 123 4.0 6.0 0.00 0.00 0.00 84 1006.1
20260505080859 68 189 0.0 11.0 0.00 0.00 0.00 84 1006.4
20260505080355 68 195 5.0 7.0 0.00 0.00 0.00 84 1006.4
20260505075851 68 163 2.0 9.0 0.00 0.00 0.00 84 1006.4
20260505075348 68 101 4.0 4.0 0.00 0.00 0.00 84 1006.3
20260505074845 68 184 4.0 8.0 0.00 0.00 0.00 83 1006.5
20260505074342 68 195 1.0 3.0 0.00 0.00 0.00 83 1006.4
20260505073840 68 80 4.0 9.0 0.00 0.00 0.00 83 1006.6
20260505073337 68 196 3.0 5.0 0.00 0.00 0.00 83 1006.6
20260505072834 68 159 3.0 6.0 0.00 0.00 0.00 83 1006.6
20260505072330 68 260 2.0 7.0 0.00 0.00 0.00 83 1006.5
20260505071826 69 238 2.0 6.0 0.00 0.00 0.00 83 1006.5
20260505071323 68 188 2.0 7.0 0.00 0.00 0.00 82 1006.7
20260505070821 69 101 1.0 8.0 0.00 0.00 0.00 82 1006.7
20260505070318 69 82 1.0 6.0 0.00 0.00 0.00 82 1006.9
20260505065813 69 226 4.0 5.0 0.00 0.00 0.00 82 1006.9
20260505065310 69 107 3.0 9.0 0.00 0.00 0.00 81 1006.9
20260505064807 69 119 0.0 5.0 0.00 0.00 0.00 81 1007.0
20260505064304 69 231 4.0 6.0 0.00 0.00 0.00 81 1007.2
20260505063802 69 141 3.0 6.0 0.00 0.00 0.00 81 1007.2
20260505063258 69 88 1.0 10.0 0.00 0.00 0.00 81 1007.0
20260505062754 69 113 3.0 6.0 0.00 0.00 0.00 81 1007.1
20260505062252 69 180 2.0 4.0 0.00 0.00 0.00 81 1007.1
20260505061748 69 140 2.0 5.0 0.00 0.00 0.00 80 1007.3
20260505061247 69 198 4.0 6.0 0.00 0.00 0.00 80 1007.3
20260505060744 69 258 3.0 5.0 0.00 0.00 0.00 80 1007.2
20260505060241 69 14 4.0 5.0 0.00 0.00 0.00 80 1007.4
20260505055736 69 243 0.0 4.0 0.00 0.00 0.00 80 1007.3
20260505055232 69 118 1.0 4.0 0.00 0.00 0.00 79 1007.3
20260505054730 69 235 2.0 6.0 0.00 0.00 0.00 79 1007.6
20260505054228 69 61 4.0 6.0 0.00 0.00 0.00 79 1007.4
20260505053726 69 353 1.0 5.0 0.00 0.00 0.00 79 1007.6
20260505053222 69 85 0.0 4.0 0.00 0.00 0.00 79 1007.6
20260505052719 69 206 4.0 6.0 0.00 0.00 0.00 79 1007.5
20260505052216 69 275 4.0 6.0 0.00 0.00 0.00 78 1007.6
20260505051713 69 228 4.0 4.0 0.00 0.00 0.00 78 1007.5
20260505051211 69 245 2.0 4.0 0.00 0.00 0.00 78 1007.7
20260505050709 69 227 2.0 5.0 0.00 0.00 0.00 78 1007.7
20260505050207 69 103 0.0 6.0 0.00 0.00 0.00 78 1007.8
20260505041637 70 124 0.0 6.0 0.00 0.00 0.00 74 1007.8
20260505041134 70 329 2.0 9.0 0.00 0.00 0.00 73 1007.8
20260505040631 69 201 3.0 6.0 0.00 0.00 0.00 73 1008.0
20260505040128 69 173 0.0 2.0 0.00 0.00 0.00 73 1008.0
20260505035624 69 1 2.0 4.0 0.00 0.00 0.00 73 1008.0
20260505035120 69 277 3.0 3.0 0.00 0.00 0.00 73 1007.9
20260505034617 70 69 2.0 3.0 0.00 0.00 0.00 72 1008.0
20260505034114 70 285 3.0 4.0 0.00 0.00 0.00 72 1008.0
20260505033611 70 41 1.0 4.0 0.00 0.00 0.00 71 1008.1
20260505033110 70 174 2.0 3.0 0.00 0.00 0.00 71 1008.1
20260505032607 70 42 1.0 4.0 0.00 0.00 0.00 70 1008.1
20260505032103 70 64 2.0 4.0 0.00 0.00 0.00 70 1007.9
20260505031601 70 111 3.0 4.0 0.00 0.00 0.00 70 1007.7
20260505031057 70 165 0.0 3.0 0.00 0.00 0.00 70 1007.7
20260505030554 70 173 2.0 3.0 0.00 0.00 0.00 70 1007.8
20260505030050 70 84 2.0 3.0 0.00 0.00 0.00 70 1007.9
20260505025545 70 185 2.0 3.0 0.00 0.00 0.00 69 1007.9
20260505025045 70 92 2.0 3.0 0.00 0.00 0.00 69 1007.9
20260505024541 70 32 0.0 2.0 0.00 0.00 0.00 69 1007.9
20260505024038 70 144 1.0 3.0 0.00 0.00 0.00 69 1007.9
20260505023535 70 118 1.0 2.0 0.00 0.00 0.00 70 1007.7
20260505023033 70 214 0.0 3.0 0.00 0.00 0.00 69 1007.8
20260505022530 71 198 1.0 2.0 0.00 0.00 0.00 69 1007.7
20260505022027 71 296 0.0 2.0 0.00 0.00 0.00 68 1007.9
20260505021524 71 23 2.0 2.0 0.00 0.00 0.00 68 1007.9
20260505021021 70 312 1.0 4.0 0.00 0.00 0.00 68 1007.9
20260505020520 70 119 1.0 2.0 0.00 0.00 0.00 69 1007.8
20260505020018 70 77 0.0 2.0 0.00 0.00 0.00 69 1007.8
20260505015515 71 168 1.0 2.0 0.00 0.00 0.00 68 1007.7
20260505015012 71 89 0.0 3.0 0.00 0.00 0.00 67 1007.6
20260505014509 71 62 0.0 2.0 0.00 0.00 0.00 67 1007.5
20260505014006 71 139 2.0 3.0 0.00 0.00 0.00 66 1007.6
20260505013503 71 155 0.0 2.0 0.00 0.00 0.00 66 1007.6
20260505013000 72 47 1.0 3.0 0.00 0.00 0.00 65 1007.7
20260505012458 72 130 1.0 3.0 0.00 0.00 0.00 64 1007.5
20260505011955 72 126 1.0 4.0 0.00 0.00 0.00 63 1007.6
20260505011450 73 286 1.0 3.0 0.00 0.00 0.00 63 1007.5
20260505010948 73 132 2.0 4.0 0.00 0.00 0.00 63 1007.4
20260505010443 73 132 1.0 3.0 0.00 0.00 0.00 62 1007.4
20260505005939 73 55 1.0 2.0 0.00 0.00 0.00 62 1007.2
20260505005436 74 103 1.0 4.0 0.00 0.00 0.00 61 1007.5
20260505004934 74 184 0.0 4.0 0.00 0.00 0.00 59 1007.4
20260505004430 75 153 1.0 2.0 0.00 0.00 0.00 60 1007.4
20260505003928 75 281 0.0 2.0 0.00 0.00 0.00 59 1007.2
20260505003425 75 124 3.0 4.0 0.00 0.00 0.00 58 1007.5
20260505002921 75 100 5.0 5.0 0.00 0.00 0.00 58 1007.5
20260505002417 75 142 0.0 2.0 0.00 0.00 0.00 59 1007.7
20260505001916 76 99 1.0 2.0 0.00 0.00 0.00 57 1007.6
20260505001413 76 293 1.0 4.0 0.00 0.00 0.00 55 1007.6
20260505000910 76 207 1.0 5.0 0.00 0.00 0.00 56 1007.5
20260505000408 76 71 3.0 6.0 0.00 0.00 0.00 56 1007.8
20260504235904 77 34 4.0 4.0 0.00 0.00 0.00 54 1007.8
20260504235401 77 339 0.0 10.0 0.00 0.00 0.00 54 1007.9
20260504234857 77 25 0.0 3.0 0.00 0.00 0.00 54 1007.8
20260504234355 77 269 2.0 4.0 0.00 0.00 0.00 54 1007.9
20260504233852 77 111 2.0 4.0 0.00 0.00 0.00 55 1008.0
20260504233347 78 79 5.0 6.0 0.00 0.00 0.00 53 1008.3
20260504232844 78 186 9.0 12.0 0.00 0.00 0.00 52 1008.1
20260504232342 78 73 1.0 3.0 0.00 0.00 0.00 52 1008.2
20260504231838 78 108 0.0 5.0 0.00 0.00 0.00 51 1008.2
20260504231335 78 190 3.0 11.0 0.00 0.00 0.00 51 1008.2
20260504230831 78 250 3.0 6.0 0.00 0.00 0.00 50 1008.3
20260504230329 78 304 2.0 5.0 0.00 0.00 0.00 50 1008.3
20260504225827 78 225 4.0 5.0 0.00 0.00 0.00 49 1008.7
20260504225323 79 198 2.0 8.0 0.00 0.00 0.00 50 1008.4
20260504224821 79 103 5.0 8.0 0.00 0.00 0.00 49 1008.4
20260504224318 79 180 3.0 11.0 0.00 0.00 0.00 47 1008.4
20260504223815 79 197 1.0 7.0 0.00 0.00 0.00 47 1008.8
20260504223310 79 104 4.0 8.0 0.00 0.00 0.00 49 1008.6
20260504222807 79 351 2.0 3.0 0.00 0.00 0.00 49 1008.8
20260504222305 80 245 3.0 9.0 0.00 0.00 0.00 48 1008.8
20260504221802 80 69 2.0 11.0 0.00 0.00 0.00 47 1008.7
20260504221258 80 233 2.0 5.0 0.00 0.00 0.00 47 1008.8
20260504220755 81 227 2.0 6.0 0.00 0.00 0.00 45 1008.8
20260504220252 81 277 1.0 7.0 0.00 0.00 0.00 46 1008.9
20260504215749 81 225 4.0 4.0 0.00 0.00 0.00 46 1008.9
20260504215246 81 305 4.0 6.0 0.00 0.00 0.00 45 1009.0
20260504214742 82 158 4.0 10.0 0.00 0.00 0.00 45 1009.2
20260504214238 82 306 5.0 9.0 0.00 0.00 0.00 43 1009.2
20260504213735 82 267 1.0 6.0 0.00 0.00 0.00 46 1009.3
20260504213232 82 65 5.0 5.0 0.00 0.00 0.00 46 1009.1
20260504212729 82 232 1.0 7.0 0.00 0.00 0.00 46 1009.2
20260504212225 81 229 8.0 10.0 0.00 0.00 0.00 45 1009.4
20260504211723 82 246 7.0 10.0 0.00 0.00 0.00 43 1009.7
20260504211219 82 224 1.0 8.0 0.00 0.00 0.00 45 1009.6
20260504210717 82 212 3.0 6.0 0.00 0.00 0.00 44 1009.9
20260504210213 82 189 3.0 10.0 0.00 0.00 0.00 44 1009.9
20260504205710 82 290 2.0 8.0 0.00 0.00 0.00 44 1010.0
20260504205208 82 220 2.0 9.0 0.00 0.00 0.00 44 1010.1
20260504204706 82 146 2.0 6.0 0.00 0.00 0.00 46 1010.3
20260504204204 82 308 4.0 8.0 0.00 0.00 0.00 44 1010.5
20260504203703 83 211 4.0 4.0 0.00 0.00 0.00 44 1010.6
20260504203201 83 141 2.0 7.0 0.00 0.00 0.00 43 1010.7
20260504202700 82 51 1.0 5.0 0.00 0.00 0.00 42 1010.8
20260504202158 82 222 3.0 5.0 0.00 0.00 0.00 43 1010.8
20260504201654 82 203 4.0 7.0 0.00 0.00 0.00 45 1011.0
20260504201152 81 291 5.0 7.0 0.00 0.00 0.00 45 1011.0
20260504200649 81 145 2.0 9.0 0.00 0.00 0.00 43 1011.1
20260504200146 81 333 4.0 9.0 0.00 0.00 0.00 43 1011.3
20260504195641 82 205 7.0 8.0 0.00 0.00 0.00 43 1011.3
20260504195138 82 164 0.0 8.0 0.00 0.00 0.00 44 1011.5
20260504194635 82 18 2.0 7.0 0.00 0.00 0.00 44 1011.7
20260504194131 81 242 2.0 6.0 0.00 0.00 0.00 45 1011.7
20260504193627 82 204 4.0 14.0 0.00 0.00 0.00 44 1011.7
20260504193126 82 239 5.0 7.0 0.00 0.00 0.00 42 1011.9
20260504192623 81 23 0.0 6.0 0.00 0.00 0.00 46 1011.9
20260504192121 80 268 3.0 8.0 0.00 0.00 0.00 46 1011.8
20260504191619 81 326 0.0 6.0 0.00 0.00 0.00 45 1012.0
20260504191115 80 100 1.0 8.0 0.00 0.00 0.00 47 1012.0
20260504190611 80 248 2.0 5.0 0.00 0.00 0.00 46 1012.2
20260504190108 80 96 5.0 10.0 0.00 0.00 0.00 46 1012.0
20260504185605 80 32 2.0 4.0 0.00 0.00 0.00 46 1012.3
20260504185101 79 231 5.0 7.0 0.00 0.00 0.00 44 1012.4
20260504184557 79 289 7.0 11.0 0.00 0.00 0.00 44 1012.6
20260504184052 80 226 4.0 9.0 0.00 0.00 0.00 43 1012.6
20260504183549 80 77 4.0 8.0 0.00 0.00 0.00 44 1012.7
20260504183048 80 237 5.0 6.0 0.00 0.00 0.00 45 1012.6
20260504182544 79 224 2.0 6.0 0.00 0.00 0.00 47 1012.6
20260504182042 79 252 2.0 12.0 0.00 0.00 0.00 45 1012.8
20260504181539 79 100 2.0 10.0 0.00 0.00 0.00 46 1012.9
20260504181037 80 208 6.0 8.0 0.00 0.00 0.00 45 1012.9
20260504180535 80 102 7.0 9.0 0.00 0.00 0.00 47 1013.0
20260504180034 79 291 2.0 5.0 0.00 0.00 0.00 47 1013.1
20260504175531 79 213 2.0 6.0 0.00 0.00 0.00 45 1013.2
20260504175028 79 29 3.0 6.0 0.00 0.00 0.00 45 1013.2
20260504174526 78 71 3.0 6.0 0.00 0.00 0.00 47 1013.4
20260504174022 78 168 2.0 7.0 0.00 0.00 0.00 47 1013.3
20260504173519 78 217 4.0 9.0 0.00 0.00 0.00 47 1013.4
20260504173017 78 123 2.0 8.0 0.00 0.00 0.00 46 1013.5
20260504172513 78 253 4.0 7.0 0.00 0.00 0.00 44 1013.7
20260504172009 77 96 1.0 4.0 0.00 0.00 0.00 48 1013.9
20260504171506 76 184 3.0 9.0 0.00 0.00 0.00 47 1013.9
20260504171003 76 221 4.0 8.0 0.00 0.00 0.00 48 1013.7
20260504170459 77 215 0.0 8.0 0.00 0.00 0.00 46 1014.0
20260504160419 75 245 8.0 13.0 0.00 0.00 0.00 47 1014.3
20260504150843 71 201 5.0 11.0 0.00 0.00 0.00 55 1014.6
20260504150339 71 216 4.0 11.0 0.00 0.00 0.00 56 1014.9
20260504141309 69 186 2.0 8.0 0.00 0.00 0.00 61 1015.0
20260504140806 69 62 3.0 5.0 0.00 0.00 0.00 62 1015.0
20260504140302 68 266 4.0 7.0 0.00 0.00 0.00 65 1014.7
20260504130731 64 255 3.0 4.0 0.00 0.00 0.00 69 1014.7
20260504130226 64 154 1.0 4.0 0.00 0.00 0.00 71 1014.9
20260504120150 56 88 2.0 3.0 0.00 0.00 0.00 85 1014.4
20260504110618 56 95 4.0 4.0 0.00 0.00 0.00 84 1014.4
20260504110114 56 86 2.0 4.0 0.00 0.00 0.00 84 1014.3
20260504100539 58 78 2.0 4.0 0.00 0.00 0.00 78 1014.5